Miscellaneous Local Product
Issued by NWS North Platte, NE

Home | Current Version | Previous Version | Text Only | Print | Product List | Glossary On
Versions: 1 2 3 4 5 6 7 8 9 10 11 12 13 14 15 16 17 18 19 20 21 22 23 24 25 26 27 28 29 30 31 32 33 34 35 36 37 38 39 40 41 42 43 44 45 46 47 48 49 50
000
AXUS43 KLBF 261610
MISLBF


WESTERN AND NORTH CENTRAL NEBRASKA HOURLY WEATHER ROUNDUP
NATIONAL WEATHER SERVICE NORTH PLATTE NE
1000 AM CST MON JAN 26 2015

***STATIONS NOT REPORTING VARIABLES SUCH AS SKY/WEATHER OR
PRESSURE ARE PROVIDED BY THE NEBRASKA DEPARTMENT OF
ROADS...RAWS...AND APRS NETWORKS...AND ARE NOT UNDER
NATIONAL WEATHER SERVICE QUALITY CONTROL***

...OBSERVATIONS IN AND NEAR THE EASTERN PANHANDLE OF NEBRASKA...

CITY           SKY/WX    TMP DP  RH WIND       PRES   REMARKS
PINE RIDGE     SUNNY     43  31  62 SW6       30.10R
CHADRON        SUNNY     51  32  48 W18       30.12R
ALLIANCE       SUNNY     44  31  60 W16       30.14R
SIDNEY         SUNNY     49  30  48 W12       30.19R
$$

...OBSERVATIONS IN NORTH CENTRAL NEBRASKA...

CITY           SKY/WX    TMP DP  RH WIND       PRES   REMARKS
VALENTINE      SUNNY     45  33  63 W10       30.02R
THEDFORD       SUNNY     49  34  56 W13       30.05R
AINSWORTH      SUNNY     47  33  58 NW12      29.99R
O`NEILL        SUNNY     46  37  69 NW10      29.97R
ORD            SUNNY     49  33  54 NW12      29.97R
BROKEN BOW     SUNNY     52  34  50 NW17      29.99R
$$

...OBSERVATIONS IN SOUTHWEST NEBRASKA AND FAR NORTHEAST COLORADO...

CITY           SKY/WX    TMP DP  RH WIND       PRES   REMARKS
WRAY           FAIR      50  30  46 W13G20    30.17R
HOLYOKE        FAIR      52  32  46 NW13G18   30.16S
IMPERIAL       SUNNY     47  30  51 NW15      30.14R
OGALLALA       SUNNY     51  32  47 NW16      30.13S
NORTH PLATTE   SUNNY     43  33  68 W13       30.08S
MCCOOK         SUNNY     50  33  52 NW12      30.10R
LEXINGTON      SUNNY     46  34  63 NW22      30.04S
$$

...NORTH PLATTE AREA...

CITY           SKY/WX    TMP DP  RH WIND       PRES   REMARKS
AIRPORT        SUNNY     43  33  68 W13       30.08S
$$

...SOME WEATHER OBSERVATIONS FROM AROUND THE REGION...

CITY           SKY/WX    TMP DP  RH WIND       PRES   REMARKS
DENVER         MOSUNNY   49  25  39 SW10      30.26R
LARAMIE        SUNNY     33  25  72 SE3       30.35R
CHEYENNE       SUNNY     52  22  30 W8        30.26R
SCOTTSBLUFF    SUNNY     43  32  65 NW7       30.18R
RAPID CITY     SUNNY     57  29  34 NW5       30.05R
PIERRE         SUNNY     45  34  65 W12       29.96R
WINNER         FAIR      49  34  56 W16       29.98R
SIOUX FALLS    MOSUNNY   40  35  83 NW13G21   29.85R WCI  32
OMAHA          MOSUNNY   43  34  70 NW12      29.88S
GRAND ISLAND   SUNNY     48  34  58 W13       29.97R
KANSAS CITY    MOSUNNY   38  32  79 SW15      29.93F WCI  29
WICHITA        MOSUNNY   47  31  53 W10       30.04S
HAYS           SUNNY     52  30  43 NW12      30.07R
LIBERAL        SUNNY     50  34  53 NW15      30.20R
GOODLAND       SUNNY     50  31  48 NW15      30.16R
$$



USA.gov is the U.S. government's official web portal to all federal, state and local government web resources and services.